Regional Weather Roundup
Issued by NWS

Home | Current Version | Previous Version | Text Only | Print | Product List | Glossary Off
Versions: 1 2 3 4 5 6 7 8 9 10 11 12 13 14 15 16 17 18 19 20 21 22 23 24 25 26 27 28 29 30 31 32 33 34 35 36 37 38 39 40 41 42 43 44 45 46 47 48 49 50

000
ASUS43 KIND 160209
RWRIN

WEATHER ROUNDUP FOR INDIANA
NATIONAL WEATHER SERVICE INDIANAPOLIS IN
1000 PM EDT TUE APR 15 2014

NOTE: "FAIR" INDICATES FEW OR NO CLOUDS BELOW 12,000 FEET WITH NO
SIGNIFICANT WEATHER AND/OR OBSTRUCTIONS TO VISIBILITY.

* - STATION DOES NOT REPORT WEATHER SUCH AS PRECIPITATION OR FOG.

+ - STATION NOT QUALITY CONTROLLED BY THE NATIONAL WEATHER SERVICE.
    USE DATA WITH CAUTION...ESPECIALLY DEWPOINT AND RELATIVE
    HUMIDITY OBSERVATIONS.

INZ001>003-010>013-019-020-160300-
NORTHWEST INDIANA

CITY           SKY/WX    TMP DP  RH WIND       PRES   REMARKS
GARY /AIRPORT/ CLEAR     34  19  55 SE5       30.20R WCI  30
LA PORTE +     CLEAR     28  17  64 CALM      30.21R
MICHIGAN CITY+ CLEAR     30  16  55 CALM      30.22R
MONTICELLO +   CLEAR     32  17  53 CALM      30.22R
RENSSELAER +   CLEAR     32  21  64 CALM      30.22R
VALPARAISO     CLEAR     29  16  58 CALM      30.21R

$$

LMZ046-743>745-160300-
SOUTHERN LAKE MICHIGAN

STATION/POSITION TIME  TEMP WIND        PRES
                       AIR  DIR/SP/G
                 (UTC) (F)  (DEG/KT/KT) (MB)
MICHIGAN CITY    0200   31   70/  4/  6   N/A

$$

INZ004-005-014>016-021>024-160300-
NORTH CENTRAL INDIANA

CITY           SKY/WX    TMP DP  RH WIND       PRES   REMARKS
GOSHEN         CLEAR     29  14  53 NE3       30.22R
LOGANSPORT +   CLEAR     30  21  69 CALM      30.24R
PERU/GRISSOM   CLEAR     32  15  51 CALM      30.22R
ROCHESTER +    CLEAR     32  19  59 CALM      30.23R
SOUTH BEND     NOT AVBL
WARSAW +       CLEAR     28  16  59 CALM      30.22R

$$

INZ006>009-017-018-025>027-160300-
NORTHEAST INDIANA

CITY           SKY/WX    TMP DP  RH WIND       PRES   REMARKS
ANGOLA *+      CLEAR     28  12  50 CALM      30.21R
AUBURN +       CLEAR     28  10  47 CALM      30.23R
FORT WAYNE     CLEAR     27  13  55 CALM      30.24R

$$

INZ028-029-035-036-043>045-051>053-160300-
WEST CENTRAL INDIANA

CITY           SKY/WX    TMP DP  RH WIND       PRES   REMARKS
GREENCASTLE +  CLEAR     30  23  74 CALM      30.23R
LAFAYETTE      CLEAR     30  19  63 CALM      30.22R
TERRE HAUTE    CLEAR     34  26  72 CALM      30.23R

$$

INZ030>032-037>040-046>048-054>057-064-065-160300-
CENTRAL INDIANA

CITY           SKY/WX    TMP DP  RH WIND       PRES   REMARKS
CP ATTERBURY + CLEAR     32  21  64 CALM      30.25R
INDIANAPOLIS   PTCLDY    32  15  49 NE3       30.22R
-EAGLE CREEK   CLEAR     31  18  58 NE3       30.22R
KOKOMO *+      CLEAR     30  18  59 CALM      30.23R
MARION +       CLEAR     30  15  54 CALM      30.24R
MT COMFORT *+  CLEAR     30  25  80 CALM      30.24R
SHELBYVILLE    CLEAR     34  22  61 CALM      30.24R
ZIONSVILLE +   CLEAR     30  21  69 CALM      30.23R

$$

INZ033-034-041-042-049-050-058-059-160300-
EAST CENTRAL INDIANA

CITY           SKY/WX    TMP DP  RH WIND       PRES   REMARKS
MUNCIE         CLEAR     29  18  63 NE3       30.23R

$$

INZ060-061-067>069-081>083-085>088-160300-
SOUTHWEST INDIANA

CITY           SKY/WX    TMP DP  RH WIND       PRES   REMARKS
EVANSVILLE     CLEAR     38  27  64 CALM      30.24R
HUNTINGBURG *+ CLEAR     36  21  55 NE3       30.25R
WASHINGTON +   CLEAR     34  30  85 CALM      30.23S

$$

INZ062-063-066-070>080-084-089>092-160300-
SOUTH CENTRAL AND SOUTHEAST INDIANA

CITY           SKY/WX    TMP DP  RH WIND       PRES   REMARKS
BLOOMINGTON    PTCLDY    31  22  69 CALM      30.22R
SEYMOUR +      CLEAR     30   7  37 N6        30.25  WCI  24

$$




USA.gov is the U.S. government's official web portal to all federal, state and local government web resources and services.